Погода в Солохах

Россия / Белгородская область     50°32′09″N   36°09′42″E
темп.,
°C
ветер,
м/с
пор.,
м/с
влажн.,
%
обл.,
%
осадки,
мм/ч
давл.,
гПа
погр.,
м
17 мая, пн
пн1700:00+17всв4119298 0.2 1008194
03:00+15всв51387100 0.2 1006267
06:00+15вюв51581100 0.0 1005311
09:00+20вюв715605 0.0 1005694
12:00+23юв912515 0.0 10041067
15:00+24юв7105798 0.0 10041323
18:00+22юв61269100 0.0 1004567
21:00+18юв4118587 0.0 1005228
18 мая, вт
вт1800:00+18ююв3884100 0.1 1005250
03:00+16ююв479692 0.1 1005152
06:00+15юв3598100 1.2 1005175
09:00+15ю4896100 3.6 1006434
12:00+17ююв4687100 0.1 1006497
15:00+20ю6770100 0.9 10051239
18:00+19ю587647 0.9 1005799
21:00+14ююв49934 1.3 1006179
19 мая, ср
ср1900:00+13ююв38945 0.0 1005167
03:00+12ююв37967 0.0 1005139
06:00+13юв489776 0.4 1006336
09:00+16ююв578582 0.6 1006670
12:00+17ю578399 0.8 1006927
15:00+13юз4691100 2.6 1007444
18:00+13ю2493100 0.6 1007263
21:00+12юв3495100 0.6 100796
20 мая, чт
чт2000:00+11вюв2295100 0.0 100629
03:00+12юв3495100 0.3 100691
06:00+11ю369419 0.1 1006153
09:00+15ююз568246 0.1 1006690
12:00+16юз6873100 0.7 10071116
15:00+16зюз7107450 1.1 10081091
18:00+16зюз5974100 0.2 10081196
21:00+12юз2288100 0.2 100919
21 мая, пт
пт2100:00+13ююз61184100 0.2 1009515
03:00+12ююз61390100 0.3 1010638
06:00+12зюз389297 0.1 1011543
09:00+15юз577694 0.1 1012880
12:00+17з6771100 0.7 10131205
15:00+19з455993 0.7 10131494
18:00+18ссз3466100 0.0 1014516
21:00+13с5976100 0.0 1016281